SCP
0 0 0 0 0 -0 0 0 -0 0 0 -0 0 0 -0 -0 -0 -0 0 0 0 0 -0 -0 -0 -0 -0 -0 -0 -0 -0 -0 -0 0 0 -0 -0 -0 -0 -0 -0 0 0 0 0 0 0 0 0
0 0 0 -0 -0 0 0 0 0 -0 -0 -0 0 0 0 -0 -0 -0 -0 0 0 -0 -0 -0 -0 -0 -0 -0 -0 -0 -0 -0 0 -0 0 0 0 -0 -0 -0 -0 -0 -0 -0 -0 0 0 0 0
0 -0 0 -0 0 0 0 0 0 -0 -0 -0 -0 -0 -0 -0 -0 -0 -0 -0 -0 -0 -0 -0 -0 -0 -0 -0 -0 -0 -0 -0 -0 0 0 0 0 0 0 0 -0 -0 -0 -0 -0 -0 -0 0 0
0 0 0 0 -0 0 0 0 0 0 0 -0 -0 0 0 -0 -0 -0 -0 0 0 -0 -0 -0 -0 -0 -0 -0 -0 -0 -0 -0 -0 -0 -0 -0 -0 0 0 0 0 0 0 -0 -0 -0 -0 0 0
0 -0 0 0 0 0 0 0 0 0 0 0 0 0 0 0 0 0 0 -0 0 -0 -0 -0 -0 -0 -0 -0 -0 -0 0 0 0 -0 -0 -0 -0 0 0 0 0 0 0 0 0 0 0 0 0
0 0 0 0 0 0 0 0 0 0 0 0 0 0 0 0 0 0 0 0 0 0 0 -0 0 0 0 -0 -0 -0 -0 0 0 0 -0 -0 -0 -0 0 0 0 0 0 0 0 0 0 0 0
0 0 0 0 0 0 0 0 0 0 0 0 0 0 0 0 0 0 0 0 0 0 0 0 0 0 -0 -0 0 0 0 0 0 0 0 0 0 0 0 0 0 0 0 0 0 0 0 0 0
0 0 0 0 0 0 0 0 0 0 0 0 0 0 0 0 0 0 0 0 0 0 0 0 0 0 0 0 0 0 0 0 0 0 0 0 0 0 0 0 0 0 0 0 0 0 0 0 0
0 0 0 0 0 0 0 0 0 0 0 0 0 0 0 0 0 0 0 0 0 0 0 0 0 0 0 0 0 0 0 0 0 0 0 0 0 0 0 0 0 0 0 0 0 0 0 0 0
0 0 0 0 0 0 0 0 0 0 0 0 0 0 0 0 0 0 0 0 0 0 0 0 0 0 0 0 0 0 0 0 0 0 0 0 0 0 0 0 0 0 0 0 0 0 0 0 0
0 0 0 0 0 0 0 0 0 0 0 0 0 0 0 0 0 0 0 0 0 0 0 0 0 0 0 0 0 0 0 0 0 0 0 0 0 0 0 0 0 0 0 0 0 0 0 0 0
0 0 0 0 0 0 0 0 0 0 0 0 0 0 0 0 0 0 0 0 0 0 0 0 0 0 0 0 0 0 0 0 0 0 0 0 0 0 0 0 0 0 0 0 0 0 0 0 0
0 0 0 0 0 0 0 0 0 0 0 0 0 0 0 0 0 0 0 0 0 0 0 0 0 0 0 0 0 0 0 0 0 0 0 0 0 0 0 0 0 0 0 0 0 0 0 0 0
0 0 0 0 0 0 0 0 0 0 0 0 0 0 0 0 0 0 0 0 0 0 0 0 0 0 0 0 0 0 0 0 0 0 0 0 0 0 0 0 0 0 0 0 0 0 0 0 0
0 0 0 0 0 0 0 0 0 0 0 0 0 0 0 0 0 0 0 0 0 0 0 0 0 0 0 0 0 0 0 0 0 0 0 0 0 0 0 0 0 0 0 0 0 0 0 0 0
0 0 0 0 0 0 0 0 0 0 0 0 0 0 0 0 0 0 0 0 0 0 0 0 0 0 0 0 0 0 0 0 0 0 0 0 0 0 0 0 0 0 0 0 0 0 0 0 0
0 0 0 0 0 0 0 0 0 0 0 0 0 0 0 0 0 0 0 0 0 0 0 0 0 0 0 0 0 0 0 0 0 0 0 0 0 0 0 0 0 0 0 0 0 0 0 0 0
0 0 0 0 0 0 0 0 0 0 0 0 0 0 0 0 0 0 0 0 0 0 0 0 0 0 0 0 0 0 0 0 0 0 0 0 0 0 0 0 0 0 0 0 0 0 0 0 0
0 0 0 0 0 0 0 0 0 0 0 0 0 0 0 0 0 0 0 0 0 0 0 0 0 0 0 0 0 0 0 0 0 0 0 0 0 0 0 0 0 0 0 0 0 0 0 0 0
0 0 0 0 0 0 0 0 0 0 0 0 0 0 0 0 0 0 0 0 0 0 0 0 0 0 0 0 0 0 0 0 0 0 0 0 0 0 0 0 0 0 0 0 0 0 0 0 0
0 0 0 0 0 0 0 0 0 0 0 0 0 0 0 0 0 0 0 0 0 0 0 0 0 0 0 0 0 0 0 0 0 0 0 0 0 0 0 0 0 0 0 0 0 0 0 0 0
0 0 0 0 0 0 0 0 0 0 0 0 0 0 0 0 0 0 0 0 0 0 0 0 0 0 0 0 0 0 0 0 0 0 0 0 0 0 0 0 0 0 0 0 0 0 0 0 0
0 0 0 0 0 0 0 0 0 0 0 0 0 0 0 0 0 0 0 0 0 0 0 0 0 0 0 0 0 0 0 0 0 0 0 0 0 0 0 0 0 0 0 0 0 0 0 0 0
0 0 0 0 0 0 0 0 0 0 0 0 0 0 0 0 0 0 0 0 0 0 0 0 0 0 0 0 0 0 0 0 0 0 0 0 0 0 0 0 0 0 0 0 0 0 0 0 0
0 0 0 0 0 0 0 0 0 0 0 0 0 0 0 0 0 0 0 0 0 0 0 0 0 0 0 0 0 0 0 0 0 0 0 0 0 0 0 0 0 0 0 0 0 0 0 0 0
0 0 0 0 0 0 0 0 0 0 0 0 0 0 0 0 0 0 0 0 0 0 0 0 0 0 0 0 0 0 0 0 0 0 0 0 0 0 0 0 0 0 0 0 0 0 0 0 0
0 0 0 0 0 0 0 0 0 0 0 0 0 0 0 0 0 0 0 0 0 0 0 0 0 0 0 0 0 0 0 0 0 0 0 0 0 0 0 0 0 0 0 0 0 0 0 0 0
0 0 0 0 0 0 0 0 0 0 0 0 0 0 0 0 0 0 0 0 0 0 0 0 0 0 0 0 0 0 0 0 0 0 0 0 0 0 0 0 0 0 0 0 0 0 0 0 0
0 0 0 0 0 0 0 0 0 0 0 0 0 0 0 0 0 0 0 0 0 0 0 0 0 0 0 0 0 0 0 0 0 0 0 0 0 0 0 0 0 0 0 0 0 0 0 0 0
0 0 0 0 0 0 0 0 0 0 0 0 0 0 0 0 0 0 0 0 0 0 0 0 0 0 0 0 0 0 0 0 0 0 0 0 0 0 0 0 0 0 0 0 0 0 0 0 0
Wind_Speed_500mb
3 1 5 4 6 3 8 8 3 3 3 3 2 4 10 8 8 7 5 6 6 21 39 38 32 28 25 19 19 17 15 13 10 10 10 8 6 9 14 18 17 10 11 14 15 16 16 13 11
5 7 5 2 4 10 11 4 6 5 4 2 1 1 1 11 7 6 8 6 8 21 37 38 33 29 26 22 22 19 14 10 8 10 8 8 7 10 23 25 25 15 9 10 12 14 14 12 11
5 5 2 2 2 9 9 5 4 2 1 1 2 2 4 7 8 5 6 7 10 18 33 36 33 29 27 24 22 19 15 12 11 10 8 9 7 11 19 25 25 16 7 9 12 13 12 10 9
2 2 5 2 15 6 6 5 3 6 4 1 0 7 5 6 4 4 7 9 11 17 28 32 31 28 27 23 22 19 17 14 12 10 10 9 2 9 16 25 26 11 6 9 11 12 11 9 9
2 0 3 6 8 6 2 1 2 4 4 5 1 6 6 7 5 6 11 11 12 14 23 30 30 28 25 24 21 19 18 16 14 12 10 8 5 7 14 23 22 14 9 9 12 12 10 9 9
1 1 6 9 9 5 5 3 5 6 5 4 3 7 7 6 7 8 11 9 11 13 15 26 29 27 26 24 21 20 20 18 16 13 13 10 7 6 12 16 22 17 12 11 12 11 10 8 6
3 2 2 7 11 8 7 3 8 5 5 8 3 7 9 7 4 6 8 9 8 12 15 21 28 28 25 25 25 22 20 19 17 15 14 11 8 7 11 12 15 20 14 12 12 11 8 5 3
5 2 8 6 12 9 6 6 3 2 6 1 3 6 8 9 6 12 12 12 12 13 14 18 24 29 30 27 27 24 21 20 18 16 15 14 11 9 9 7 11 13 16 15 14 12 11 8 3
5 5 6 9 12 9 6 8 5 4 5 4 3 2 9 12 11 12 15 15 16 18 18 18 20 26 31 31 29 25 22 21 20 19 17 15 14 9 7 10 16 21 21 15 13 13 11 11 10
1 4 4 4 6 9 7 5 2 6 6 5 7 5 15 14 16 17 19 21 21 22 23 23 23 23 26 31 29 26 26 22 20 19 17 15 12 11 12 15 14 17 20 22 25 16 14 12 11
4 4 6 6 9 5 5 7 5 7 8 5 6 8 10 7 14 18 20 21 24 26 28 30 29 29 26 26 29 28 28 27 22 17 17 13 14 18 17 17 17 18 19 22 26 29 23 18 14
6 6 7 7 10 9 7 4 6 10 2 10 11 10 9 9 9 8 7 8 13 19 26 34 37 34 30 24 24 28 25 31 28 26 21 21 20 15 11 13 18 18 20 24 24 28 30 20 18
6 4 8 9 13 13 11 16 8 7 11 15 10 13 10 5 2 2 4 8 13 17 22 29 35 39 35 29 28 27 27 29 31 27 23 17 13 15 13 15 18 18 21 18 25 34 26 21 18
4 5 11 12 14 12 12 6 8 7 15 15 14 10 6 3 2 2 5 10 15 18 20 21 25 39 38 36 34 28 24 24 25 25 25 21 17 18 17 16 13 8 11 15 24 30 29 26 26
0 10 13 20 9 11 16 8 12 15 16 11 8 4 2 1 2 3 6 7 8 8 7 12 29 42 44 40 34 28 21 17 17 17 26 22 22 16 14 12 17 16 15 21 20 27 29 30 31
6 6 10 7 10 6 13 7 12 14 14 7 5 3 2 2 1 3 4 3 2 1 7 20 36 43 43 40 38 30 25 20 14 11 9 10 15 17 11 4 1 5 13 16 21 26 33 36 38
7 15 12 7 7 6 13 3 17 4 16 11 7 5 5 3 3 2 4 5 7 11 19 30 41 45 45 41 33 31 23 17 15 13 11 10 4 5 3 9 9 13 19 26 33 35 35 37 43
15 13 11 15 8 10 11 19 17 2 13 13 10 8 6 5 7 11 15 18 21 27 31 35 44 43 42 38 36 31 24 17 16 15 13 8 4 6 11 13 18 20 24 25 25 24 25 26 28
9 14 16 10 4 8 25 29 24 16 15 16 15 13 11 10 15 19 23 30 36 40 42 45 45 47 44 41 36 30 23 17 11 10 9 7 9 8 4 4 4 6 8 13 16 19 22 27 33
17 22 27 14 9 10 24 31 21 22 17 20 21 20 19 20 21 26 30 35 42 46 47 46 44 42 38 33 31 29 30 38 39 36 32 28 23 20 16 15 15 17 18 19 22 26 30 34 42
29 31 27 21 2 12 14 32 23 10 13 18 20 23 24 26 31 35 38 40 43 44 44 44 44 43 42 43 46 49 47 44 39 35 30 29 23 21 19 20 21 22 24 29 34 36 38 39 38
29 25 21 19 10 21 8 17 11 18 19 24 29 31 31 32 38 44 48 52 53 55 56 57 57 56 55 50 46 41 39 38 34 29 26 24 22 23 23 24 25 27 29 31 35 38 41 41 42
9 12 16 13 20 14 17 14 7 12 24 27 36 37 36 36 43 50 55 59 60 60 59 56 53 50 47 42 36 32 31 31 29 27 21 19 19 19 20 23 25 28 32 35 38 40 41 45 46
26 15 9 4 6 16 32 27 11 14 18 33 44 44 43 42 44 49 56 58 58 56 54 51 47 45 39 34 32 27 27 28 23 20 16 17 17 19 21 25 30 33 36 39 42 46 47 47 49
12 21 5 9 11 15 1 23 22 9 14 39 54 58 54 51 53 57 60 59 56 52 48 43 38 38 33 27 26 26 26 24 19 18 19 20 24 27 31 35 39 43 48 53 55 59 62 64 63
34 27 13 12 11 5 6 16 10 6 10 26 56 59 54 51 54 59 60 58 54 49 44 39 35 33 29 25 22 19 18 17 16 18 21 25 28 30 32 33 37 41 46 49 52 55 60 63 66
15 20 3 8 2 5 12 8 7 8 13 30 56 60 59 58 60 62 61 58 54 47 42 36 32 30 27 23 18 15 12 14 14 13 13 18 22 25 28 32 36 41 46 52 58 65 70 74 75
15 23 11 10 10 12 8 11 16 21 26 32 49 64 65 62 61 63 64 61 56 49 43 36 30 26 24 19 15 9 4 6 8 11 15 21 23 28 32 39 44 51 57 63 69 75 78 79 78
14 15 9 7 10 8 6 9 5 20 35 43 56 68 72 70 68 67 66 63 58 52 46 40 34 25 21 16 8 2 5 7 11 17 20 26 32 38 43 47 53 59 65 71 76 78 79 80 79
21 22 32 15 13 9 5 9 4 4 27 49 59 68 69 67 67 66 68 68 66 59 51 44 38 31 21 13 7 4 6 9 17 25 29 33 38 43 47 53 60 67 75 80 81 81 80 80 81
Wind_Direction_500mb
357 114 139 112 207 179 111 110 326 160 165 24 20 323 30 26 13 41 12 128 139 174 182 182 178 174 179 182 177 165 158 152 144 135 136 116 50 14 28 23 4 0 25 26 24 28 26 26 34
80 122 110 154 195 149 109 113 156 67 56 351 147 226 114 72 44 53 50 85 128 169 183 186 189 179 183 181 178 173 170 170 162 155 141 131 67 41 6 8 11 14 23 27 25 29 32 32 39
102 119 216 109 119 116 122 162 121 87 360 228 192 48 37 55 45 66 54 105 122 162 182 190 193 190 189 190 188 192 192 186 180 173 162 156 124 1 1 358 356 3 26 34 24 25 36 40 52
91 38 67 222 112 99 92 122 193 166 151 116 272 122 72 44 51 41 89 105 124 157 177 190 194 196 188 195 195 197 193 191 186 181 175 176 220 349 356 354 349 6 41 37 21 22 31 39 44
60 42 148 132 122 123 205 292 227 176 137 115 154 96 79 42 76 97 120 116 124 154 179 190 195 198 192 196 200 198 196 198 198 194 200 209 256 334 354 1 10 13 37 35 18 18 27 38 44
76 277 197 186 149 153 214 235 213 180 144 129 116 120 87 88 124 128 144 141 138 155 175 193 198 198 191 198 207 209 204 205 207 213 219 230 261 314 350 12 25 32 33 31 22 23 26 31 40
74 288 142 148 155 178 172 218 213 157 153 113 114 146 128 72 128 173 185 185 173 170 173 187 199 205 195 198 205 211 217 215 216 224 230 235 259 301 331 2 18 31 36 30 21 17 24 31 35
100 104 150 184 183 173 142 185 164 207 129 81 114 151 161 267 279 223 214 210 201 194 187 189 197 204 202 214 205 210 215 223 223 233 242 250 258 268 306 329 335 357 20 26 19 4 0 348 335
107 190 181 181 175 156 151 185 182 269 248 87 98 140 230 257 245 219 216 217 211 207 206 203 203 206 208 206 214 208 220 220 227 231 238 247 247 265 304 325 329 343 359 351 12 4 348 335 326
256 246 195 148 172 166 162 232 207 218 203 184 144 317 278 248 236 238 229 224 221 218 218 219 216 210 211 207 213 207 212 222 224 231 237 243 264 283 294 293 310 320 334 349 347 344 345 327 312
164 241 155 198 206 181 219 239 200 225 236 169 227 296 269 223 209 217 224 226 228 231 233 230 225 217 210 210 201 208 207 217 221 234 243 242 286 280 276 291 301 308 321 321 330 334 326 324 312
230 206 198 176 196 168 210 247 239 232 214 216 251 246 182 154 149 155 180 217 235 237 236 235 229 218 207 203 195 198 204 210 221 220 227 232 248 268 269 285 287 295 303 308 310 320 316 312 302
232 215 205 220 215 232 226 241 266 206 225 232 210 173 156 137 101 359 308 287 281 271 256 238 229 212 200 190 192 193 203 208 208 207 215 219 227 243 269 272 270 281 282 290 306 311 318 308 300
174 245 267 266 248 222 217 227 188 157 153 153 155 157 152 165 203 266 273 281 282 278 271 253 216 195 186 184 185 189 183 193 205 207 218 221 234 240 232 239 276 234 289 313 320 314 320 322 312
216 282 275 241 233 219 166 175 196 158 163 155 152 143 129 89 1 326 333 324 297 281 246 204 171 175 178 180 181 165 165 157 179 179 212 221 227 223 222 220 254 264 289 310 321 317 314 315 317
234 256 268 136 169 165 199 222 152 166 183 173 158 154 173 190 224 327 329 336 331 98 153 158 161 165 169 171 166 158 148 147 152 194 193 148 113 127 146 150 316 337 317 314 315 317 309 304 305
215 258 229 283 202 147 221 240 164 184 206 196 186 192 196 199 212 169 129 117 114 122 131 144 151 157 161 165 159 158 151 157 152 144 144 134 160 74 10 316 338 330 323 317 314 306 302 299 298
215 215 224 239 170 206 207 245 173 183 191 195 191 184 163 158 162 143 132 125 120 126 133 143 148 153 159 160 158 158 146 146 131 134 120 105 78 344 325 324 316 310 299 296 293 301 314 315 319
236 216 210 209 186 238 245 253 208 193 189 191 191 180 158 141 143 139 138 133 128 129 132 136 141 140 141 141 140 146 157 161 183 155 117 135 103 89 68 57 26 9 359 1 355 348 345 338 337
218 238 243 268 238 224 262 253 227 199 217 207 188 174 163 140 133 141 143 142 138 135 134 134 135 136 140 146 155 156 138 121 112 110 110 104 99 92 82 68 52 37 26 13 5 4 4 360 355
224 231 238 253 152 231 279 264 220 186 177 171 172 164 152 145 138 137 139 140 141 140 139 139 136 137 135 132 130 127 126 118 114 109 103 92 81 70 57 45 35 23 14 7 2 357 355 356 357
230 213 231 245 244 262 199 284 207 196 185 186 173 167 158 149 142 137 135 133 135 132 130 130 128 127 125 126 126 126 123 120 107 96 84 73 61 48 36 26 16 8 3 357 355 352 349 345 343
243 149 206 226 240 270 210 261 159 173 211 195 181 173 164 157 151 143 138 135 133 132 132 131 130 127 125 126 124 120 113 104 98 89 79 69 54 39 25 14 7 0 357 353 348 344 343 341 337
133 102 88 114 215 252 231 218 213 204 218 180 179 177 172 165 158 151 144 139 136 136 135 134 134 130 130 129 124 117 106 99 95 84 72 58 43 30 18 10 1 355 349 345 343 341 337 334 330
176 155 189 226 208 250 276 211 255 221 187 185 175 176 177 172 167 161 155 149 146 143 141 139 140 134 130 126 118 113 110 107 92 76 47 29 15 5 358 353 347 343 340 338 336 334 332 331 328
194 194 197 221 207 210 138 225 235 129 145 175 179 176 175 175 175 170 164 158 154 151 150 149 147 141 135 127 115 103 91 74 57 40 22 2 354 346 341 337 335 332 330 327 326 324 323 321 319
180 213 202 100 53 262 209 228 213 151 153 165 173 175 180 182 181 177 171 167 162 160 159 159 156 149 141 133 115 94 59 51 28 1 352 326 322 320 322 321 320 320 320 322 324 324 323 321 319
196 147 180 216 222 232 219 253 232 199 185 175 181 185 184 184 184 182 179 174 171 169 167 166 162 157 147 135 118 100 67 23 344 328 341 320 319 319 325 327 329 327 325 324 324 322 320 317 315
171 189 206 210 217 221 260 230 205 200 187 186 190 189 187 187 187 186 184 181 179 178 177 175 172 169 164 155 139 94 332 350 318 329 335 327 329 330 330 328 326 324 321 320 319 317 315 313 311
233 219 191 201 186 238 303 247 189 203 190 188 190 192 191 190 188 188 188 187 186 186 184 184 184 178 187 180 188 237 296 334 334 338 333 327 325 324 324 323 321 319 319 318 318 317 316 313 311
Wind_Speed_850mb
3 1 5 4 6 3 8 8 3 3 3 3 2 4 10 8 8 7 5 6 6 21 39 38 32 28 25 19 19 17 15 13 10 10 10 8 6 9 14 18 17 10 11 14 15 16 16 13 11
5 7 5 2 4 10 11 4 6 5 4 2 1 1 1 11 7 6 8 6 8 21 37 38 33 29 26 22 22 19 14 10 8 10 8 8 7 10 23 25 25 15 9 10 12 14 14 12 11
5 5 2 2 2 9 9 5 4 2 1 1 2 2 4 7 8 5 6 7 10 18 33 36 33 29 27 24 22 19 15 12 11 10 8 9 7 11 19 25 25 16 7 9 12 13 12 10 9
2 2 5 2 15 6 6 5 3 6 4 1 0 7 5 6 4 4 7 9 11 17 28 32 31 28 27 23 22 19 17 14 12 10 10 9 2 9 16 25 26 11 6 9 11 12 11 9 9
2 0 3 6 8 6 2 1 2 4 4 5 1 6 6 7 5 6 11 11 12 14 23 30 30 28 25 24 21 19 18 16 14 12 10 8 5 7 14 23 22 14 9 9 12 12 10 9 9
1 1 6 9 9 5 5 3 5 6 5 4 3 7 7 6 7 8 11 9 11 13 15 26 29 27 26 24 21 20 20 18 16 13 13 10 7 6 12 16 22 17 12 11 12 11 10 8 6
3 2 2 7 11 8 7 3 8 5 5 8 3 7 9 7 4 6 8 9 8 12 15 21 28 28 25 25 25 22 20 19 17 15 14 11 8 7 11 12 15 20 14 12 12 11 8 5 3
5 2 8 6 12 9 6 6 3 2 6 1 3 6 8 9 6 12 12 12 12 13 14 18 24 29 30 27 27 24 21 20 18 16 15 14 11 9 9 7 11 13 16 15 14 12 11 8 3
5 5 6 9 12 9 6 8 5 4 5 4 3 2 9 12 11 12 15 15 16 18 18 18 20 26 31 31 29 25 22 21 20 19 17 15 14 9 7 10 16 21 21 15 13 13 11 11 10
1 4 4 4 6 9 7 5 2 6 6 5 7 5 15 14 16 17 19 21 21 22 23 23 23 23 26 31 29 26 26 22 20 19 17 15 12 11 12 15 14 17 20 22 25 16 14 12 11
4 4 6 6 9 5 5 7 5 7 8 5 6 8 10 7 14 18 20 21 24 26 28 30 29 29 26 26 29 28 28 27 22 17 17 13 14 18 17 17 17 18 19 22 26 29 23 18 14
6 6 7 7 10 9 7 4 6 10 2 10 11 10 9 9 9 8 7 8 13 19 26 34 37 34 30 24 24 28 25 31 28 26 21 21 20 15 11 13 18 18 20 24 24 28 30 20 18
6 4 8 9 13 13 11 16 8 7 11 15 10 13 10 5 2 2 4 8 13 17 22 29 35 39 35 29 28 27 27 29 31 27 23 17 13 15 13 15 18 18 21 18 25 34 26 21 18
4 5 11 12 14 12 12 6 8 7 15 15 14 10 6 3 2 2 5 10 15 18 20 21 25 39 38 36 34 28 24 24 25 25 25 21 17 18 17 16 13 8 11 15 24 30 29 26 26
0 10 13 20 9 11 16 8 12 15 16 11 8 4 2 1 2 3 6 7 8 8 7 12 29 42 44 40 34 28 21 17 17 17 26 22 22 16 14 12 17 16 15 21 20 27 29 30 31
6 6 10 7 10 6 13 7 12 14 14 7 5 3 2 2 1 3 4 3 2 1 7 20 36 43 43 40 38 30 25 20 14 11 9 10 15 17 11 4 1 5 13 16 21 26 33 36 38
7 15 12 7 7 6 13 3 17 4 16 11 7 5 5 3 3 2 4 5 7 11 19 30 41 45 45 41 33 31 23 17 15 13 11 10 4 5 3 9 9 13 19 26 33 35 35 37 43
15 13 11 15 8 10 11 19 17 2 13 13 10 8 6 5 7 11 15 18 21 27 31 35 44 43 42 38 36 31 24 17 16 15 13 8 4 6 11 13 18 20 24 25 25 24 25 26 28
9 14 16 10 4 8 25 29 24 16 15 16 15 13 11 10 15 19 23 30 36 40 42 45 45 47 44 41 36 30 23 17 11 10 9 7 9 8 4 4 4 6 8 13 16 19 22 27 33
17 22 27 14 9 10 24 31 21 22 17 20 21 20 19 20 21 26 30 35 42 46 47 46 44 42 38 33 31 29 30 38 39 36 32 28 23 20 16 15 15 17 18 19 22 26 30 34 42
29 31 27 21 2 12 14 32 23 10 13 18 20 23 24 26 31 35 38 40 43 44 44 44 44 43 42 43 46 49 47 44 39 35 30 29 23 21 19 20 21 22 24 29 34 36 38 39 38
29 25 21 19 10 21 8 17 11 18 19 24 29 31 31 32 38 44 48 52 53 55 56 57 57 56 55 50 46 41 39 38 34 29 26 24 22 23 23 24 25 27 29 31 35 38 41 41 42
9 12 16 13 20 14 17 14 7 12 24 27 36 37 36 36 43 50 55 59 60 60 59 56 53 50 47 42 36 32 31 31 29 27 21 19 19 19 20 23 25 28 32 35 38 40 41 45 46
26 15 9 4 6 16 32 27 11 14 18 33 44 44 43 42 44 49 56 58 58 56 54 51 47 45 39 34 32 27 27 28 23 20 16 17 17 19 21 25 30 33 36 39 42 46 47 47 49
12 21 5 9 11 15 1 23 22 9 14 39 54 58 54 51 53 57 60 59 56 52 48 43 38 38 33 27 26 26 26 24 19 18 19 20 24 27 31 35 39 43 48 53 55 59 62 64 63
34 27 13 12 11 5 6 16 10 6 10 26 56 59 54 51 54 59 60 58 54 49 44 39 35 33 29 25 22 19 18 17 16 18 21 25 28 30 32 33 37 41 46 49 52 55 60 63 66
15 20 3 8 2 5 12 8 7 8 13 30 56 60 59 58 60 62 61 58 54 47 42 36 32 30 27 23 18 15 12 14 14 13 13 18 22 25 28 32 36 41 46 52 58 65 70 74 75
15 23 11 10 10 12 8 11 16 21 26 32 49 64 65 62 61 63 64 61 56 49 43 36 30 26 24 19 15 9 4 6 8 11 15 21 23 28 32 39 44 51 57 63 69 75 78 79 78
14 15 9 7 10 8 6 9 5 20 35 43 56 68 72 70 68 67 66 63 58 52 46 40 34 25 21 16 8 2 5 7 11 17 20 26 32 38 43 47 53 59 65 71 76 78 79 80 79
21 22 32 15 13 9 5 9 4 4 27 49 59 68 69 67 67 66 68 68 66 59 51 44 38 31 21 13 7 4 6 9 17 25 29 33 38 43 47 53 60 67 75 80 81 81 80 80 81
Wind_Direction_850mb
357 114 139 112 207 179 111 110 326 160 165 24 20 323 30 26 13 41 12 128 139 174 182 182 178 174 179 182 177 165 158 152 144 135 136 116 50 14 28 23 4 0 25 26 24 28 26 26 34
80 122 110 154 195 149 109 113 156 67 56 351 147 226 114 72 44 53 50 85 128 169 183 186 189 179 183 181 178 173 170 170 162 155 141 131 67 41 6 8 11 14 23 27 25 29 32 32 39
102 119 216 109 119 116 122 162 121 87 360 228 192 48 37 55 45 66 54 105 122 162 182 190 193 190 189 190 188 192 192 186 180 173 162 156 124 1 1 358 356 3 26 34 24 25 36 40 52
91 38 67 222 112 99 92 122 193 166 151 116 272 122 72 44 51 41 89 105 124 157 177 190 194 196 188 195 195 197 193 191 186 181 175 176 220 349 356 354 349 6 41 37 21 22 31 39 44
60 42 148 132 122 123 205 292 227 176 137 115 154 96 79 42 76 97 120 116 124 154 179 190 195 198 192 196 200 198 196 198 198 194 200 209 256 334 354 1 10 13 37 35 18 18 27 38 44
76 277 197 186 149 153 214 235 213 180 144 129 116 120 87 88 124 128 144 141 138 155 175 193 198 198 191 198 207 209 204 205 207 213 219 230 261 314 350 12 25 32 33 31 22 23 26 31 40
74 288 142 148 155 178 172 218 213 157 153 113 114 146 128 72 128 173 185 185 173 170 173 187 199 205 195 198 205 211 217 215 216 224 230 235 259 301 331 2 18 31 36 30 21 17 24 31 35
100 104 150 184 183 173 142 185 164 207 129 81 114 151 161 267 279 223 214 210 201 194 187 189 197 204 202 214 205 210 215 223 223 233 242 250 258 268 306 329 335 357 20 26 19 4 0 348 335
107 190 181 181 175 156 151 185 182 269 248 87 98 140 230 257 245 219 216 217 211 207 206 203 203 206 208 206 214 208 220 220 227 231 238 247 247 265 304 325 329 343 359 351 12 4 348 335 326
256 246 195 148 172 166 162 232 207 218 203 184 144 317 278 248 236 238 229 224 221 218 218 219 216 210 211 207 213 207 212 222 224 231 237 243 264 283 294 293 310 320 334 349 347 344 345 327 312
164 241 155 198 206 181 219 239 200 225 236 169 227 296 269 223 209 217 224 226 228 231 233 230 225 217 210 210 201 208 207 217 221 234 243 242 286 280 276 291 301 308 321 321 330 334 326 324 312
230 206 198 176 196 168 210 247 239 232 214 216 251 246 182 154 149 155 180 217 235 237 236 235 229 218 207 203 195 198 204 210 221 220 227 232 248 268 269 285 287 295 303 308 310 320 316 312 302
232 215 205 220 215 232 226 241 266 206 225 232 210 173 156 137 101 359 308 287 281 271 256 238 229 212 200 190 192 193 203 208 208 207 215 219 227 243 269 272 270 281 282 290 306 311 318 308 300
174 245 267 266 248 222 217 227 188 157 153 153 155 157 152 165 203 266 273 281 282 278 271 253 216 195 186 184 185 189 183 193 205 207 218 221 234 240 232 239 276 234 289 313 320 314 320 322 312
216 282 275 241 233 219 166 175 196 158 163 155 152 143 129 89 1 326 333 324 297 281 246 204 171 175 178 180 181 165 165 157 179 179 212 221 227 223 222 220 254 264 289 310 321 317 314 315 317
234 256 268 136 169 165 199 222 152 166 183 173 158 154 173 190 224 327 329 336 331 98 153 158 161 165 169 171 166 158 148 147 152 194 193 148 113 127 146 150 316 337 317 314 315 317 309 304 305
215 258 229 283 202 147 221 240 164 184 206 196 186 192 196 199 212 169 129 117 114 122 131 144 151 157 161 165 159 158 151 157 152 144 144 134 160 74 10 316 338 330 323 317 314 306 302 299 298
215 215 224 239 170 206 207 245 173 183 191 195 191 184 163 158 162 143 132 125 120 126 133 143 148 153 159 160 158 158 146 146 131 134 120 105 78 344 325 324 316 310 299 296 293 301 314 315 319
236 216 210 209 186 238 245 253 208 193 189 191 191 180 158 141 143 139 138 133 128 129 132 136 141 140 141 141 140 146 157 161 183 155 117 135 103 89 68 57 26 9 359 1 355 348 345 338 337
218 238 243 268 238 224 262 253 227 199 217 207 188 174 163 140 133 141 143 142 138 135 134 134 135 136 140 146 155 156 138 121 112 110 110 104 99 92 82 68 52 37 26 13 5 4 4 360 355
224 231 238 253 152 231 279 264 220 186 177 171 172 164 152 145 138 137 139 140 141 140 139 139 136 137 135 132 130 127 126 118 114 109 103 92 81 70 57 45 35 23 14 7 2 357 355 356 357
230 213 231 245 244 262 199 284 207 196 185 186 173 167 158 149 142 137 135 133 135 132 130 130 128 127 125 126 126 126 123 120 107 96 84 73 61 48 36 26 16 8 3 357 355 352 349 345 343
243 149 206 226 240 270 210 261 159 173 211 195 181 173 164 157 151 143 138 135 133 132 132 131 130 127 125 126 124 120 113 104 98 89 79 69 54 39 25 14 7 0 357 353 348 344 343 341 337
133 102 88 114 215 252 231 218 213 204 218 180 179 177 172 165 158 151 144 139 136 136 135 134 134 130 130 129 124 117 106 99 95 84 72 58 43 30 18 10 1 355 349 345 343 341 337 334 330
176 155 189 226 208 250 276 211 255 221 187 185 175 176 177 172 167 161 155 149 146 143 141 139 140 134 130 126 118 113 110 107 92 76 47 29 15 5 358 353 347 343 340 338 336 334 332 331 328
194 194 197 221 207 210 138 225 235 129 145 175 179 176 175 175 175 170 164 158 154 151 150 149 147 141 135 127 115 103 91 74 57 40 22 2 354 346 341 337 335 332 330 327 326 324 323 321 319
180 213 202 100 53 262 209 228 213 151 153 165 173 175 180 182 181 177 171 167 162 160 159 159 156 149 141 133 115 94 59 51 28 1 352 326 322 320 322 321 320 320 320 322 324 324 323 321 319
196 147 180 216 222 232 219 253 232 199 185 175 181 185 184 184 184 182 179 174 171 169 167 166 162 157 147 135 118 100 67 23 344 328 341 320 319 319 325 327 329 327 325 324 324 322 320 317 315
171 189 206 210 217 221 260 230 205 200 187 186 190 189 187 187 187 186 184 181 179 178 177 175 172 169 164 155 139 94 332 350 318 329 335 327 329 330 330 328 326 324 321 320 319 317 315 313 311
233 219 191 201 186 238 303 247 189 203 190 188 190 192 191 190 188 188 188 187 186 186 184 184 184 178 187 180 188 237 296 334 334 338 333 327 325 324 324 323 321 319 319 318 318 317 316 313 311